Location: Harwich
(41.6860°N, 70.0760°W)
Time: 11:54:05
(UTC-04:00)

Envisat - Visible Passes

Search period start: 23 July 2021 00:00
Search period end: 02 August 2021 00:00
Orbit: 764 x 766 km, 98.1° (Epoch: 22 July)

Date Brightness Start Highest point End Pass type
(mag) Time Alt. Az. Time Alt. Az. Time Alt. Az.
23 Jul 5.8 04:43:51 10° NE 04:46:40 15° E 04:49:27 10° SE visible
26 Jul 6.0 04:33:30 10° ENE 04:35:02 11° E 04:36:34 10° ESE visible
28 Jul 5.6 04:56:56 10° NE 05:00:41 20° E 05:04:24 10° SE visible
31 Jul 5.7 04:46:00 10° NE 04:49:04 16° E 04:52:09 10° SE visible
